Theta_e
307 307 307 307 307 308 309 310 310 311 311 311 311 312 312 312 312 313 318 319 318 313 313 315 317 320 321 322 324 325 328 331 333 332 335 336 341 341 340 341 343 341 341 344 338
305 305 305 306 306 307 308 308 309 310 311 311 311 312 312 313 315 322 319 318 316 313 316 317 318 318 319 321 324 326 329 331 333 332 334 335 335 341 342 342 343 343 344 343 337
304 305 305 306 306 306 307 308 308 309 311 311 311 312 313 313 322 325 321 320 318 313 318 317 319 319 320 321 324 326 329 331 331 331 331 333 332 342 342 342 343 344 346 341 336
305 305 306 306 306 307 308 308 308 309 310 311 311 312 313 312 326 327 320 319 318 313 316 317 319 320 321 322 323 326 327 328 330 331 330 333 332 335 341 343 341 344 346 342 337
305 306 306 306 307 308 308 308 310 310 311 311 312 312 313 324 320 323 322 322 317 317 317 317 319 320 322 322 323 325 327 327 328 327 329 331 333 331 338 343 343 343 347 344 339
306 306 307 307 307 308 308 311 312 313 313 312 312 313 315 322 318 320 321 322 320 319 319 319 319 319 321 322 323 323 324 326 326 327 327 332 333 330 332 344 342 343 346 345 341
307 307 307 307 307 308 311 313 314 315 315 314 314 314 321 320 322 323 321 322 319 319 319 319 319 319 320 323 322 322 324 325 325 325 327 328 332 332 332 340 345 344 346 346 343
307 308 308 308 308 309 312 313 314 315 315 316 316 316 322 317 320 321 322 322 319 319 317 318 318 319 322 323 322 323 324 325 326 326 327 329 331 332 332 336 346 345 345 346 345
308 308 308 308 308 310 312 313 313 314 314 316 320 323 321 317 317 320 322 323 321 318 316 317 318 320 322 324 324 324 324 324 325 327 328 329 329 329 330 334 342 345 346 346 347
309 309 309 309 309 310 310 314 314 317 315 318 321 324 319 322 320 321 321 322 320 317 317 318 320 323 324 324 324 325 324 323 324 327 328 328 330 329 332 335 337 343 346 347 348
310 310 310 309 309 309 315 320 323 324 324 321 321 321 320 320 319 320 322 322 323 319 322 321 323 323 325 324 324 324 325 325 326 327 331 328 329 328 336 337 335 341 344 347 350
312 311 310 309 309 312 318 319 317 318 324 320 320 321 320 320 321 321 322 323 324 325 324 324 322 325 324 323 323 323 323 324 325 326 329 331 331 331 331 336 336 337 341 345 350
312 312 310 310 310 316 316 316 316 318 324 321 320 321 321 320 321 321 322 323 325 325 325 325 325 323 322 322 322 323 323 324 324 326 327 330 332 332 332 333 335 336 337 340 346
312 312 310 311 316 317 318 316 317 318 328 323 323 322 321 320 321 321 322 323 325 325 325 325 324 323 322 323 324 324 325 324 323 325 326 327 327 329 330 330 332 332 337 339 343
312 313 311 312 317 319 317 317 317 320 329 322 323 322 321 323 323 323 321 323 325 325 325 325 325 324 324 324 325 325 326 326 325 325 325 326 329 329 330 330 332 332 332 339 342
312 313 311 317 321 319 319 317 319 325 323 323 323 325 325 324 323 323 322 323 325 326 325 326 325 325 326 326 325 326 326 326 327 327 327 327 326 328 329 331 333 331 331 337 342
312 312 312 316 322 319 320 319 325 320 320 323 323 324 325 326 326 325 324 324 327 327 327 326 325 326 325 325 326 326 327 328 328 329 327 327 327 328 329 330 332 330 330 336 342
312 311 315 315 319 320 320 322 322 321 321 321 323 323 324 325 325 325 325 326 328 330 328 327 327 326 325 326 327 328 328 329 331 329 329 328 328 328 328 328 328 328 328 333 341
312 319 321 319 319 321 321 322 322 321 322 321 321 322 324 323 324 326 329 331 330 331 331 331 327 327 326 326 327 327 327 327 328 328 329 329 329 328 328 329 328 327 328 331 338
312 318 321 317 320 321 323 320 323 321 322 321 323 323 323 323 322 323 329 329 329 328 329 331 330 327 327 327 327 327 327 329 329 329 328 327 328 328 330 329 330 331 330 332 335
316 318 320 317 320 322 324 322 321 320 321 324 323 323 323 323 321 322 324 328 325 327 327 329 331 328 328 327 328 330 330 329 333 330 329 330 329 330 330 330 330 330 329 334 340
318 321 317 316 324 322 324 323 318 320 319 323 323 324 324 324 323 321 322 327 321 324 326 330 331 328 326 325 324 325 325 327 332 332 332 336 333 328 329 329 328 329 331 338 327
317 318 316 317 324 323 321 320 319 320 321 323 324 324 324 324 324 322 324 326 321 321 325 329 326 326 326 324 324 326 324 329 330 332 330 328 328 327 329 331 330 332 333 333 332
315 320 318 317 318 323 321 320 320 317 319 321 324 324 323 323 324 324 323 324 320 318 319 322 323 325 325 325 326 328 327 326 326 328 329 328 327 327 328 329 328 328 332 334 332
315 319 313 321 318 318 319 320 320 319 317 318 321 321 322 324 323 324 323 322 321 318 320 323 327 326 326 325 324 323 323 323 324 325 327 326 326 326 326 326 325 328 333 334 333
313 314 315 314 314 315 312 317 319 319 317 319 319 321 320 322 322 323 322 322 320 320 322 322 322 320 320 319 320 320 319 318 318 319 320 321 322 323 323 328 330 331 331 334 333
310 310 310 313 316 317 318 317 316 315 315 313 316 317 318 317 316 318 317 317 317 319 320 320 321 321 322 321 321 321 320 321 322 321 321 322 323 323 327 329 330 329 333 333 333
Wind_Speed
10 10 10 11 12 12 12 12 12 11 10 11 11 13 12 13 13 14 6 10 9 10 10 12 15 17 16 19 19 13 13 14 14 11 4 13 9 8 6 6 6 5 3 22 22
10 11 12 12 13 13 13 13 13 12 12 11 9 12 11 11 10 8 9 9 10 9 10 15 17 17 20 20 20 17 13 19 13 2 10 15 7 14 8 9 9 10 16 22 23
11 12 12 13 13 13 13 13 13 12 12 10 9 9 10 9 4 6 4 3 6 13 10 11 11 16 20 19 22 20 18 16 9 7 10 6 6 11 10 13 14 14 21 22 22
12 12 13 14 14 13 13 13 12 12 11 9 8 6 6 6 2 4 3 1 4 11 10 12 11 16 18 20 21 18 21 24 18 2 11 8 4 8 11 5 17 16 20 22 23
13 13 14 14 15 14 14 13 11 9 9 7 5 4 4 5 1 5 4 2 5 8 11 14 15 15 16 18 17 21 19 18 21 7 11 13 8 11 14 6 5 20 21 22 22
14 14 15 15 16 15 13 10 10 8 5 3 3 3 3 11 1 4 5 5 5 7 9 13 11 14 15 17 16 14 22 22 17 15 12 12 13 10 13 16 11 19 21 21 22
14 15 15 15 15 13 9 10 8 6 4 1 1 1 6 3 3 7 9 4 6 5 7 10 8 7 12 10 15 19 13 17 13 14 15 12 15 12 15 19 15 18 21 21 21
15 15 15 15 15 10 8 11 6 5 2 1 2 2 1 4 6 9 6 5 6 5 5 8 9 12 12 6 5 14 15 16 19 17 9 11 17 18 20 16 19 21 21 20 21
15 15 15 15 14 8 9 9 5 4 4 2 4 3 6 2 6 9 9 6 4 4 5 7 10 14 12 11 13 13 15 18 20 18 13 15 18 19 27 19 20 20 20 21 21
15 15 14 14 12 8 10 4 3 8 6 4 2 6 7 5 6 7 10 7 6 7 8 10 10 10 12 13 13 9 16 15 8 15 11 17 16 15 6 13 19 20 21 20 21
15 14 14 12 7 8 8 8 2 1 5 6 4 3 4 4 4 8 12 10 8 10 12 14 10 11 16 11 10 11 13 11 9 2 4 14 15 18 17 14 19 22 21 21 20
16 14 13 11 4 7 9 2 5 3 3 2 1 0 4 6 7 10 13 12 10 13 10 6 12 5 5 5 8 11 13 13 9 4 11 15 16 16 15 15 18 20 21 23 22
16 14 12 8 4 6 4 3 4 4 8 6 3 4 1 11 7 14 16 15 9 12 9 15 5 9 6 10 11 13 14 12 13 8 11 15 13 14 13 13 18 19 22 24 25
16 12 9 4 3 1 1 6 6 3 5 6 5 4 6 6 7 4 12 12 8 12 11 9 2 5 11 10 10 12 14 10 12 12 12 19 13 17 20 18 17 22 24 24 25
15 10 5 4 1 4 6 7 4 1 5 3 5 4 6 7 6 10 12 11 15 7 7 6 6 10 11 11 8 7 3 7 10 12 14 16 9 15 9 13 13 18 26 25 25
14 8 2 4 4 6 8 5 2 7 2 6 2 3 10 3 6 4 10 10 10 9 10 13 5 5 12 0 7 12 6 13 12 13 14 18 17 14 13 17 13 16 21 23 24
13 5 1 2 3 8 8 4 6 6 3 5 3 4 1 1 5 6 10 13 9 9 13 16 14 13 8 11 14 12 11 10 12 12 13 17 17 16 5 6 10 10 16 26 24
12 4 1 1 6 8 5 8 6 6 0 3 4 4 6 4 3 6 8 8 2 10 13 11 7 4 5 11 12 12 12 11 15 11 12 7 6 11 11 12 13 9 14 12 18
10 4 1 4 5 6 9 8 4 2 4 3 7 9 8 5 6 4 5 9 6 6 9 7 5 5 2 8 10 13 10 13 13 15 12 12 11 6 11 11 13 15 17 16 18
9 3 4 6 5 4 7 9 1 3 3 5 11 3 5 5 8 6 11 3 1 4 7 5 11 3 3 7 14 12 12 8 9 14 16 15 12 10 8 8 5 12 14 16 24
6 6 1 5 5 9 9 3 3 4 3 3 3 4 3 3 6 4 1 8 2 4 8 7 8 15 7 12 5 5 12 7 9 11 11 12 8 14 5 12 9 12 21 16 14
4 5 4 4 10 5 5 1 2 5 4 5 5 6 5 0 6 5 4 3 4 7 8 6 6 11 16 17 6 9 16 17 10 14 8 13 14 12 5 13 9 13 13 5 15
9 8 5 2 6 7 3 4 3 5 4 3 5 4 2 4 4 6 4 10 3 5 8 7 5 9 15 17 13 10 13 4 9 9 16 15 12 8 9 19 32 26 28 23 37
7 3 4 2 4 8 2 9 8 2 3 5 5 2 6 9 8 5 6 7 1 3 3 4 9 12 13 17 14 10 5 10 11 9 13 15 21 17 18 8 23 22 19 26 27
3 3 3 2 4 5 4 5 9 7 8 6 6 9 8 9 10 11 10 7 6 7 8 4 12 15 16 18 15 17 17 17 18 18 17 18 20 17 18 19 25 24 27 28 28
7 5 3 7 5 7 4 7 10 4 4 6 7 5 5 9 11 14 8 2 9 5 6 3 9 10 16 16 18 20 21 21 22 21 21 19 20 17 21 13 20 25 27 22 26
6 5 5 1 6 7 7 5 3 3 4 8 6 6 9 4 9 8 9 13 13 9 9 9 10 10 16 15 16 18 16 20 19 19 17 17 17 13 9 11 16 22 16 20 22
Wind_Direction
343 337 332 327 321 318 315 311 308 301 305 302 308 312 318 316 304 294 269 250 238 236 203 197 203 217 225 231 228 243 264 255 250 238 153 121 178 175 185 129 178 108 126 150 153
347 343 339 333 326 322 320 313 307 305 304 298 305 307 315 322 306 269 245 240 234 204 168 185 201 210 219 225 224 239 238 251 277 235 259 124 229 150 177 193 161 137 122 146 152
351 349 341 334 331 329 322 312 308 305 298 298 299 303 317 327 282 124 205 244 225 190 187 202 214 207 223 221 219 225 249 256 277 276 278 98 190 145 212 179 173 164 146 154 158
352 346 342 337 334 330 324 319 314 304 295 295 291 297 314 302 346 166 195 253 190 184 211 216 222 212 228 222 228 233 242 261 283 163 256 250 233 180 214 294 153 163 160 162 165
348 344 341 338 334 330 328 325 320 310 300 292 275 285 282 238 133 199 204 150 153 182 210 209 219 225 233 234 224 230 249 234 253 273 255 249 227 261 192 188 207 159 167 171 174
346 344 341 339 336 333 336 343 334 327 321 269 247 242 242 246 74 190 186 149 171 193 213 212 223 228 260 261 241 226 239 257 255 233 233 250 232 228 234 166 196 166 176 179 180
344 342 341 341 339 338 348 348 346 356 4 50 154 189 246 341 160 166 153 173 197 214 230 223 239 231 221 256 250 249 267 234 243 238 245 229 247 217 237 181 183 177 185 182 189
344 342 340 342 344 345 354 348 336 333 360 100 132 168 38 167 172 160 171 167 186 221 235 221 222 233 258 254 239 235 235 244 218 219 214 218 242 207 223 209 185 190 191 191 192
342 343 340 343 349 353 354 353 8 66 50 86 74 191 134 140 179 195 186 184 192 217 224 197 206 228 201 236 224 209 244 218 262 171 229 205 249 251 204 187 206 194 203 197 191
342 342 341 346 351 360 355 10 53 58 102 91 73 228 174 152 162 176 184 185 185 175 167 193 216 222 227 218 232 241 207 252 229 183 205 234 234 253 167 186 215 199 206 197 195
344 343 342 345 1 7 22 358 278 127 229 36 36 298 168 171 168 185 184 190 188 200 214 214 230 220 223 215 307 307 310 287 198 22 242 231 247 240 173 216 215 208 203 198 197
345 345 341 346 25 49 47 52 40 337 242 124 39 264 222 205 191 172 181 201 202 229 212 197 235 264 342 305 256 255 256 255 271 145 251 243 233 227 216 200 221 222 210 205 202
341 344 344 353 32 57 69 61 351 317 255 143 105 34 129 184 219 173 194 218 211 240 201 266 29 64 252 227 244 239 256 252 254 169 242 265 261 237 226 200 214 229 228 218 205
339 345 352 31 64 10 308 340 335 278 253 130 167 98 141 179 213 179 200 221 232 258 228 259 40 200 241 253 229 260 210 241 273 253 252 203 251 216 221 224 216 224 228 228 212
338 344 358 49 330 335 308 323 303 276 234 95 91 128 160 234 120 182 211 232 264 220 262 192 190 217 231 236 205 278 56 254 261 250 252 251 241 280 297 205 220 220 224 223 221
340 343 4 351 38 345 334 307 330 231 131 135 191 265 184 187 186 109 188 230 281 273 230 287 168 281 275 80 235 289 247 249 243 250 241 240 261 261 242 221 221 229 236 207 212
343 338 210 136 289 329 329 284 243 267 165 149 155 235 344 245 149 209 175 206 244 220 231 215 231 211 228 254 224 223 249 257 226 222 234 236 223 233 295 253 210 246 253 200 186
345 340 244 238 320 322 326 257 263 58 257 122 231 212 243 286 153 182 203 185 202 317 290 284 202 199 173 257 314 196 239 258 291 289 316 117 223 240 250 257 294 292 288 307 177
349 358 316 294 307 320 276 244 333 64 46 244 182 230 175 197 277 257 360 18 45 343 314 324 173 150 224 290 284 279 228 260 282 277 274 280 262 247 217 222 233 248 243 228 222
348 295 228 310 287 290 253 262 43 42 294 244 259 273 229 149 243 221 162 69 259 343 317 4 298 294 338 290 251 258 306 280 231 256 268 274 258 282 148 178 308 342 313 229 218
359 277 105 326 277 244 249 63 147 118 276 275 293 239 260 219 278 248 300 105 309 311 301 316 271 283 208 254 288 238 244 247 339 296 294 289 268 59 190 302 4 329 324 357 326
315 270 350 336 249 237 269 141 25 162 218 228 294 302 270 192 270 255 266 68 7 309 289 58 304 285 284 308 319 283 286 295 294 285 335 319 291 320 292 286 289 298 347 53 99
311 291 310 312 263 215 93 180 228 198 199 218 233 264 174 254 264 252 243 104 13 326 349 1 245 267 256 240 224 245 251 300 299 300 282 289 272 337 46 349 306 25 354 342 209
303 270 169 247 305 307 198 217 184 234 233 257 294 264 243 245 224 267 227 148 268 300 37 316 265 262 277 306 327 291 266 271 285 277 279 278 297 309 309 287 307 6 326 342 330
288 70 330 320 96 322 280 326 252 185 248 236 215 252 254 253 250 232 240 239 221 168 233 252 268 266 263 270 287 285 279 278 270 264 264 280 288 299 309 317 320 339 346 339 322
322 337 310 279 283 267 190 244 257 195 255 223 252 290 261 261 272 290 345 262 266 188 236 226 271 281 277 277 273 271 268 265 263 266 270 274 274 283 285 335 345 349 328 338 332
339 304 296 272 229 254 251 238 253 316 193 279 311 290 242 294 341 330 310 295 285 285 271 263 267 265 266 270 271 260 256 256 260 264 264 264 277 291 314 344 339 324 349 342 335